Flag for Canada Weather past 2 weeks in Burnaby, British Columbia, Canada

Now
57 °F

Clear.


Feels Like: 57 °F
Forecast: 55 / 81 °F
Wind: 5 mph from Northwest

Location: Vancouver International Air-Port

Current Time: Sep 20, 2014 at 11:19:12 PM

Latest Report: Sep 20, 2014 at 10:00 PM


Visibility: 20 mi

Pressure: 29.91 "Hg

Humidity: 94%

Dew point: 55 °F

Location of BurnabyLocation

Historic Weather in Burnaby — Graph

°F

Burnaby temperature yesterday

Maximum temperature yesterday: 66 °F (at 3:00 PM)
Minimum temperature yesterday: 59 °F (at 12:00 AM)
Average temperature yesterday: 61 °F

Past Weeks' High & Low Weather Summary

 TemperatureHumidityPressure
High75 °F (Sep 6, 3:00 PM)100% (Sep 18, 5:00 AM)30.35 "Hg (Sep 18, 5:00 AM)
Low46 °F (Sep 11, 5:00 AM)34% (Sep 11, 10:00 AM)29.71 "Hg (Sep 17, 6:00 PM)
Average62 °F78%29.97 "Hg
* Reported Sep 5 10:00 PM — Sep 20 10:00 PM, Burnaby, Weather by CustomWeather, © 2014

Note: Actual official high and low records may vary slightly from our data, if they occured in-between our weather recording intervals... More about our weather records

Advertising

Burnaby weather history for previous 24 hours

 ConditionsComfort  
Time TempWeatherWind HumidityBarometerVisibility
10:00 PM
Sep 20
57 °FClear.5 mph94%29.91 "Hg20 mi
9:00 PM59 °FClear.3 mph94%29.92 "Hg20 mi
8:00 PM59 °FSunny.6 mph94%29.92 "Hg20 mi
7:00 PM61 °FSunny.6 mph94%29.94 "Hg30 mi
6:00 PM64 °FSunny.10 mph83%29.96 "Hg30 mi
5:00 PM66 °FSunny.9 mph83%29.99 "Hg30 mi
4:00 PM66 °FSunny.13 mph83%30.01 "Hg30 mi
3:00 PM66 °FSunny.13 mph83%30.04 "Hg30 mi
2:00 PM66 °FSunny.14 mph83%30.07 "Hg30 mi
1:00 PM66 °FPassing clouds.15 mph83%30.10 "Hg30 mi
12:00 PM66 °FPassing clouds.15 mph78%30.12 "Hg30 mi
11:00 AM64 °FPassing clouds.12 mph83%30.14 "Hg20 mi
10:00 AM63 °FPassing clouds.10 mph83%30.14 "Hg20 mi
6:00 AM54 °FClear.5 mph94%30.15 "Hg20 mi
5:00 AM54 °FClear.2 mph94%30.14 "Hg15 mi
4:00 AM55 °FFog.2 mph94%30.15 "Hg20 mi
3:00 AM54 °FClear.2 mph100%30.15 "Hg20 mi
2:00 AM54 °FFog.2 mph100%30.15 "Hg20 mi
1:00 AM55 °FClear.3 mph100%30.15 "Hg20 mi
12:00 AM55 °FFog.2 mph94%30.15 "Hg20 mi
11:00 PM
Sep 19
59 °FPassing clouds.3 mph94%30.14 "Hg20 mi
Weather by CustomWeather, © 2014

See weather overviewHow to use our weather pages